[[{"header":{"parameterUnit":"m.s-1","parameterCategory":1,"la1":30.2991,"la2":30.254,"lo1":-89.0895,"lo2":-89.0444,"dy":0.0017,"dx":0.0017,"nx":28,"ny":28,"refTime":"2024-04-13T21:00:00:Z","depth":0,"parameterNumber":2,"parameterNumberName":"U-component_of_WINDS"},"data":[0,0,0,0,0,0,0,0,0,0,0,0,0,0,0,0,0,0,0,0,0,0,0,0,0,0,0,0,0,0,0,0,0,0,0,0,0,0,0,0,0,0,0,0,0,0,0,0,0,0,0,0,0,0,0,0,0,0,-2.6235,-2.6236,0,-2.6336,-2.6338,-2.6339,-2.6339,-2.6338,-2.6336,-2.6335,-2.6436,-2.644,-2.6444,0,0,0,0,0,0,0,0,0,0,0,0,0,-2.6039,-2.6042,-2.6235,-2.6236,-2.6238,-2.6336,-2.6338,-2.6339,-2.6339,-2.6337,-2.6336,-2.6334,-2.6435,-2.6439,-2.6444,0,0,0,0,0,0,0,0,0,0,0,0,0,-2.613,-2.6043,-2.6235,-2.625,-2.6252,-2.6336,-2.6338,-2.6339,-2.6339,-2.6337,-2.6335,-2.6334,-2.6433,-2.6439,-2.6445,-2.652,0,0,-2.6462,-2.6465,0,0,0,0,0,0,0,0,-2.6125,-2.6137,-2.6246,-2.6249,-2.6252,-2.6323,-2.6305,-2.64,-2.634,-2.6306,-2.6335,-2.6333,-2.64,-2.6408,-2.6431,-2.6525,-2.6529,-2.6463,-2.6467,-2.6469,-2.6471,0,0,0,0,0,0,0,-2.6119,-2.6133,-2.6275,-2.6248,-2.6251,-2.625,-2.6261,-2.6323,-2.6363,-2.6309,-2.6309,-2.6321,-2.6401,-2.6426,-2.6434,-2.653,-2.6463,-2.6468,-2.6472,-2.6474,-2.6688,-2.669,0,0,0,0,0,0,-2.611,-2.6128,-2.6272,-2.6278,-2.6182,-2.6255,-2.6267,-2.6302,-2.6362,-2.6369,-2.6323,-2.6321,-2.6417,-2.6427,-2.6437,-2.6528,-2.6469,-2.6475,-2.6478,-2.6686,-2.6689,-2.6691,0,0,0,0,0,0,-2.6106,-2.6123,-2.6268,-2.6203,-2.6222,-2.6261,-2.63,-2.6305,-2.633,-2.6373,-2.6379,-2.6341,-2.6416,-2.6429,-2.6499,-2.6532,-2.6477,-2.6482,-2.6684,-2.6687,-2.669,-2.6711,0,0,0,0,0,0,-2.61,-2.6121,-2.6151,-2.6204,-2.6225,-2.6329,-2.6302,-2.6308,-2.6341,-2.6339,-2.6392,-2.6398,-2.6415,-2.649,-2.6505,-2.6539,-2.6487,-2.6681,-2.6685,-2.6689,-2.6708,-2.6715,-2.6721,0,0,0,0,0,-2.6093,-2.6153,-2.6153,-2.617,-2.6263,-2.6331,-2.6343,-2.6362,-2.6343,-2.6373,-2.64,-2.6397,-2.6526,-2.6498,-2.6514,-2.655,-2.6679,-2.6684,-2.6689,-2.6705,-2.6713,-2.6721,0,0,0,0,0,0,-2.6103,-2.616,-2.616,-2.624,-2.628,-2.6331,-2.6369,-2.6371,-2.6417,-2.6413,-2.6434,-2.6446,-2.6515,-2.654,-2.6507,-2.6625,-2.66,-2.6608,-2.6607,-2.6615,-2.6621,-2.6614,-2.6492,0,0,0,0,0,-2.6114,-2.6165,-2.6212,-2.6277,-2.6298,-2.633,-2.636,-2.6371,-2.6414,-2.6431,-2.6463,-2.6504,-2.6553,-2.6586,-2.6634,-2.6711,-2.6722,-2.6744,-2.675,-2.6756,-2.6762,-2.6803,-2.6813,-2.6707,-2.6707,-2.6707,0,0,-2.6138,-2.6176,-2.6207,-2.628,-2.6313,-2.6364,-2.6345,-2.64,-2.6438,-2.6439,-2.6507,-2.6532,-2.6579,-2.6652,-2.6686,-2.6675,-2.6794,-2.6762,-2.6766,-2.677,-2.6809,-2.6819,-2.6828,-2.671,-2.671,-2.6709,0,0,-2.6208,-2.6242,-2.6299,-2.6333,-2.6383,-2.6404,-2.6417,-2.6467,-2.6484,-2.6553,-2.6554,-2.6599,-2.6684,-2.6717,-2.6745,-2.6825,-2.6823,-2.684,-2.6874,-2.6914,-2.6922,-2.693,-2.6957,-2.6967,-2.6847,-2.6847,-2.6847,0,-2.6231,-2.6309,-2.6328,-2.6384,-2.6415,-2.6419,-2.6476,-2.6508,-2.6571,-2.6592,-2.6578,-2.6684,-2.6716,-2.6797,-2.6816,-2.6839,-2.6854,-2.6834,-2.692,-2.6927,-2.6934,-2.6961,-2.6971,-2.6849,-2.6848,-2.6848,-2.6848,0,-2.6335,-2.6388,-2.6429,-2.649,-2.6526,-2.6582,-2.6608,-2.6642,-2.6649,-2.6671,-2.6739,-2.6778,-2.6833,-2.6853,-2.6861,-2.6934,-2.6925,-2.6915,-2.689,-2.6946,-2.6971,-2.6981,-2.6851,-2.685,-2.685,-2.685,0,0,-2.6414,-2.6484,-2.6498,-2.6525,-2.658,-2.6622,-2.6677,-2.6731,-2.6759,-2.6802,-2.6848,-2.692,-2.6911,-2.6942,-2.6953,-2.6988,-2.7047,-2.6974,-2.6975,-2.6985,-2.7129,-2.7135,-2.7147,-2.7047,-2.7049,-2.705,-2.7124,0,-2.6489,-2.6588,-2.6606,-2.6692,-2.6741,-2.6745,-2.6793,-2.6831,-2.6852,-2.6896,-2.6919,-2.6969,-2.6954,-2.6973,-2.7007,-2.7033,-2.7076,-2.7028,-2.7088,-2.709,-2.7076,-2.716,-2.7167,-2.7235,-2.7134,-2.7136,-2.7137,0,-2.659,-2.6635,-2.6726,-2.6773,-2.6794,-2.6837,-2.6887,-2.693,-2.6972,-2.6985,-2.7019,-2.7026,-2.7082,-2.7055,-2.7131,-2.7097,-2.7123,-2.7139,-2.7142,-2.7148,-2.7117,-2.7167,-2.7258,-2.7268,-2.7153,-2.7152,-2.7151,0,-2.6637,-2.6721,-2.6786,-2.6809,-2.6865,-2.6895,-2.692,-2.696,-2.6991,-2.7035,-2.7055,-2.7104,-2.7131,-2.7168,-2.7188,-2.7166,-2.7262,-2.7237,-2.7273,-2.7272,-2.7293,-2.7291,-2.7388,-2.731,-2.731,-2.731,-2.731,0,-2.6718,-2.6773,-2.6807,-2.6847,-2.6908,-2.6928,-2.6988,-2.7012,-2.7048,-2.7091,-2.7097,-2.7137,-2.7161,-2.7204,-2.7219,-2.7279,-2.7291,-2.7302,-2.7305,-2.7301,-2.73,-2.7318,-2.7313,-2.7313,-2.7312,-2.7312,-2.7311,0,-2.6781,-2.6807,-2.6877,-2.6925,-2.6938,-2.6981,-2.7021,-2.7059,-2.7079,-2.7134,-2.7148,-2.718,-2.7231,-2.7254,-2.7317,-2.7327,-2.7395,-2.7396,-2.7381,-2.7382,-2.7417,-2.7413,-2.7528,-2.7544,-2.7456,-2.7457,-2.7458,0,-2.6831,-2.6874,-2.6925,-2.6955,-2.6981,-2.7029,-2.706,-2.708,-2.7113,-2.7163,-2.7195,-2.7246,-2.7288,-2.7369,-2.7398,-2.7445,-2.7446,-2.7483,-2.7453,-2.7447,-2.7445,-2.7442,-2.7446,-2.7489,-2.7489,-2.749,-2.7491,0,-2.6917,-2.6927,-2.6972,-2.7022,-2.7059,-2.7099,-2.7138,-2.7162,-2.7188,-2.7224,-2.7276,-2.7309,-2.7373,-2.7423,-2.7473,-2.7497,-2.7498,-2.75,-2.7511,-2.7507,-2.7496,-2.7501,-2.7395,-2.7497,-2.7497,-2.7496,-2.7496,-2.7495,-2.6975,-2.7012,-2.7054,-2.7104,-2.7135,-2.7171,-2.7208,-2.7233,-2.7278,-2.7332,-2.7341,-2.7396,-2.7436,-2.7502,-2.7528,-2.757,-2.7561,-2.7577,-2.7581,-2.7585,-2.7586,-2.749,-2.758,-2.7579,-2.7579,-2.7579,-2.7579,0,-2.706,-2.7086,-2.7132,-2.7186,-2.7225,-2.7223,-2.7266,-2.7298,-2.7347,-2.7384,-2.7425,-2.7484,-2.7533,-2.7564,-2.7613,-2.7641,-2.7642,-2.7653,-2.7651,-2.7656,-2.7592,-2.7577,-2.7651,-2.7651,-2.7651,-2.7651,-2.7651,-2.7651,-2.7108,-2.7171,-2.7185,-2.7263,-2.7289,-2.7344,-2.7368,-2.74,-2.743,-2.7496,-2.7536,-2.7557,-2.7591,-2.7642,-2.7686,-2.7693,-2.771,-2.7721,-2.7728,-2.7668,-2.7661,-2.7653,-2.764,-2.7725,-2.7725,-2.7789,-2.7789,-2.779]},{"header":{"parameterUnit":"m.s-1","parameterCategory":1,"la1":30.2991,"la2":30.254,"lo1":-89.0895,"lo2":-89.0444,"dy":0.0017,"dx":0.0017,"nx":28,"ny":28,"refTime":"2024-04-13T21:00:00:Z","depth":0,"parameterNumber":3,"parameterNumberName":"V-component_of_WINDS"},"data":[0,0,0,0,0,0,0,0,0,0,0,0,0,0,0,0,0,0,0,0,0,0,0,0,0,0,0,0,0,0,0,0,0,0,0,0,0,0,0,0,0,0,0,0,0,0,0,0,0,0,0,0,0,0,0,0,0,0,5.6672,5.6671,0,5.6619,5.6618,5.6618,5.6513,5.6511,5.6509,5.6507,5.6454,5.6454,5.6455,0,0,0,0,0,0,0,0,0,0,0,0,0,5.6683,5.6684,5.6672,5.6671,5.6671,5.6619,5.6618,5.6618,5.6513,5.6511,5.6508,5.6506,5.6454,5.6454,5.6455,0,0,0,0,0,0,0,0,0,0,0,0,0,5.666,5.6684,5.6672,5.6612,5.6606,5.6619,5.6618,5.6618,5.6514,5.6511,5.6507,5.6504,5.6454,5.6454,5.6455,5.6523,0,0,5.6458,5.6458,0,0,0,0,0,0,0,0,5.6661,5.6659,5.6622,5.6616,5.661,5.6569,5.6603,5.6586,5.6514,5.6549,5.6507,5.6503,5.6495,5.6492,5.6489,5.652,5.6518,5.6458,5.6458,5.6458,5.6459,0,0,0,0,0,0,0,5.6663,5.6661,5.6651,5.6621,5.6614,5.6588,5.6581,5.6599,5.654,5.6546,5.6538,5.6533,5.6491,5.6489,5.6487,5.6517,5.6458,5.6458,5.6459,5.6459,5.6599,5.6602,0,0,0,0,0,0,5.6673,5.6663,5.6653,5.6649,5.6628,5.6591,5.6583,5.6585,5.654,5.653,5.6536,5.6528,5.6489,5.6486,5.6485,5.6558,5.6458,5.6459,5.646,5.6595,5.6599,5.6603,0,0,0,0,0,0,5.6674,5.6673,5.6655,5.6654,5.665,5.6594,5.6597,5.6586,5.6583,5.6532,5.6521,5.6544,5.6486,5.6484,5.6513,5.6555,5.646,5.646,5.6592,5.6597,5.6601,5.6708,0,0,0,0,0,0,5.6674,5.6674,5.6699,5.6655,5.665,5.6684,5.66,5.6587,5.6585,5.6575,5.6537,5.6528,5.6484,5.6513,5.6514,5.6554,5.6461,5.6587,5.6594,5.6599,5.67,5.6716,5.6729,0,0,0,0,0,5.6675,5.6732,5.67,5.67,5.668,5.6687,5.6684,5.6632,5.6589,5.6613,5.658,5.6529,5.6551,5.6517,5.6517,5.6559,5.6585,5.6592,5.6599,5.6694,5.6713,5.6728,0,0,0,0,0,0,5.6782,5.6725,5.669,5.6734,5.6716,5.6669,5.6698,5.6654,5.6648,5.6639,5.6575,5.6567,5.6605,5.6585,5.6548,5.6621,5.656,5.6567,5.6631,5.6649,5.6663,5.6665,5.6462,0,0,0,0,0,5.681,5.682,5.677,5.6814,5.6807,5.6755,5.6756,5.6717,5.6696,5.6688,5.6657,5.6639,5.6642,5.6645,5.6645,5.6698,5.6687,5.6727,5.6741,5.6753,5.676,5.6784,5.68,5.6626,5.6626,5.6626,0,0,5.687,5.684,5.685,5.6835,5.6816,5.6828,5.6749,5.6765,5.6772,5.6691,5.6715,5.6693,5.6668,5.671,5.6726,5.6694,5.6806,5.6762,5.6772,5.6772,5.6793,5.681,5.6824,5.6631,5.6631,5.663,0,0,5.6982,5.6962,5.6994,5.6978,5.6951,5.6915,5.6924,5.6884,5.6865,5.6889,5.6827,5.6837,5.6843,5.6827,5.682,5.6928,5.688,5.693,5.7004,5.7028,5.7042,5.7054,5.7089,5.7103,5.6938,5.6938,5.6938,0,5.7059,5.7073,5.7017,5.7036,5.7031,5.6958,5.699,5.6977,5.6952,5.695,5.6915,5.692,5.6899,5.6934,5.696,5.6958,5.6964,5.6932,5.7045,5.7056,5.7066,5.7099,5.7113,5.6944,5.6943,5.6942,5.6942,0,5.7168,5.7179,5.7209,5.7185,5.7183,5.721,5.7158,5.7163,5.7125,5.7094,5.7119,5.7091,5.7083,5.7089,5.7053,5.7119,5.71,5.7056,5.6993,5.7089,5.7119,5.7132,5.6952,5.695,5.6948,5.6947,0,0,5.7343,5.7289,5.73,5.7288,5.7253,5.7261,5.7284,5.7275,5.728,5.7266,5.7282,5.729,5.7248,5.7241,5.7202,5.7224,5.7308,5.7177,5.7175,5.72,5.7377,5.7407,5.7423,5.7277,5.728,5.7281,5.7378,0,5.7446,5.748,5.7431,5.7477,5.7485,5.7416,5.7436,5.7417,5.7389,5.7392,5.7361,5.7366,5.7313,5.7307,5.7327,5.7294,5.7342,5.7287,5.729,5.7291,5.7295,5.7439,5.7472,5.7564,5.7389,5.7391,5.7393,0,5.7569,5.7559,5.7606,5.7567,5.7569,5.7587,5.7575,5.758,5.7557,5.7534,5.7526,5.748,5.7499,5.7441,5.7466,5.7429,5.7428,5.7413,5.7415,5.7411,5.7345,5.7436,5.7592,5.7605,5.7411,5.741,5.7408,0,5.7689,5.7688,5.7715,5.7707,5.7664,5.7678,5.766,5.7634,5.7632,5.7622,5.7619,5.7613,5.7608,5.7603,5.7557,5.7519,5.7586,5.7525,5.7567,5.7568,5.7582,5.7581,5.7737,5.7587,5.7587,5.7587,5.7586,0,5.7806,5.7836,5.7768,5.7784,5.7816,5.776,5.7793,5.7769,5.7746,5.7756,5.7698,5.7709,5.7648,5.7652,5.7616,5.7641,5.764,5.7622,5.7611,5.7625,5.7627,5.7621,5.7612,5.759,5.7589,5.7589,5.7588,0,5.7944,5.7899,5.7923,5.788,5.787,5.7896,5.7858,5.7871,5.784,5.7854,5.7854,5.7804,5.7806,5.776,5.7753,5.7729,5.7768,5.7748,5.7776,5.7768,5.7812,5.7807,5.7967,5.7984,5.7827,5.7828,5.783,0,5.8019,5.8041,5.8,5.8002,5.7988,5.7993,5.799,5.7936,5.7936,5.7911,5.7927,5.7924,5.7918,5.7925,5.7888,5.7882,5.7859,5.7916,5.7858,5.787,5.7856,5.7854,5.7855,5.7927,5.7929,5.7931,5.7932,0,5.8158,5.8135,5.8133,5.8124,5.8122,5.8112,5.8098,5.8104,5.8045,5.8047,5.8048,5.8044,5.8037,5.8034,5.8021,5.8003,5.7957,5.7951,5.796,5.7972,5.7986,5.7976,5.7805,5.7947,5.7945,5.7944,5.7943,5.7943,5.8265,5.828,5.8253,5.8252,5.8237,5.8225,5.8235,5.8205,5.8204,5.8193,5.8163,5.8168,5.8144,5.8122,5.8108,5.8112,5.8084,5.8097,5.81,5.8104,5.811,5.7989,5.811,5.8109,5.8109,5.8108,5.8108,0,5.8397,5.8377,5.8377,5.8359,5.8359,5.8318,5.83,5.8302,5.8308,5.829,5.8285,5.8286,5.8283,5.8247,5.8239,5.8249,5.8228,5.8248,5.8245,5.8241,5.8138,5.8129,5.8266,5.8265,5.8265,5.8265,5.8265,5.8265,5.8466,5.8488,5.8463,5.8477,5.8456,5.8461,5.8454,5.8443,5.8428,5.8431,5.8428,5.8405,5.8379,5.8369,5.8364,5.8353,5.8352,5.8379,5.8362,5.8264,5.8249,5.8234,5.8226,5.838,5.8381,5.8464,5.8465,5.8466]}]]